Notices

What's New in latest Release from April 7th, 2021:

- Updated Glossary, including Speed of Maximum Gust, and Total Hourly Precipitation

- Updated national and regional climate services offices contacts and prices information

- Addition of station inventory lists for 1981-2010, 1971-2000, and 1961-1990 Normals.

If you haven't already, please take our survey and provide feedback about our website: https://eccc.sondage-survey.ca/f/LanguageSelection.aspx?s=442ca660-fcf1-47c0-95a9-59707d6fd709

Hourly Data Report for January 19, 2004

TORONTO CITY
ONTARIO

43°40'00.000" N
79°24'00.000" W
112.50 m
6158355
71508
XTO

Download Data

Hourly Data (January 2004)
Hourly Data Report for January 19, 2004
TIME
LST
Temp Definition
°C
Dew Point Definition
°C
Rel Hum Definition
%
Precip. Amount Definition
mm

Wind Dir Definition
10's deg

Wind Spd Definition
km/h
Visibility Definition
km
Stn Press Definition
kPa
Hmdx Definition


Wind Chill Definition


Weather Definition


00:00 -9.9 -13.7 74   LegendMM LegendMM LegendMM 99.30     LegendNANA
01:00 -11.4 -15.2 73   LegendMM LegendMM LegendMM 99.33     LegendNANA
02:00 -11.3 -14.9 75   LegendMM LegendMM LegendMM 99.35     LegendNANA
03:00 -11.0 -14.5 75   LegendMM LegendMM LegendMM 99.39     LegendNANA
04:00 -11.0 -15.1 72   LegendMM LegendMM LegendMM 99.39     LegendNANA
05:00 -11.5 -15.8 70   LegendMM LegendMM LegendMM 99.41     LegendNANA
06:00 -11.6 -15.9 70   LegendMM LegendMM LegendMM 99.47     LegendNANA
07:00 -11.7 -15.8 72   LegendMM LegendMM LegendMM 99.52     LegendNANA
08:00 -12.3 -16.1 73   LegendMM LegendMM LegendMM 99.61     LegendNANA
09:00 -12.6 -17.0 70   LegendMM LegendMM LegendMM 99.65     LegendNANA
10:00 -12.5 -17.6 66   LegendMM LegendMM LegendMM 99.68     LegendNANA
11:00 -10.6 -17.2 58   LegendMM LegendMM LegendMM 99.68     LegendNANA
12:00 -10.5 -16.3 62   LegendMM LegendMM LegendMM 99.67     LegendNANA
13:00 -9.9 -16.3 59   LegendMM LegendMM LegendMM 99.64     LegendNANA
14:00 -9.4 -15.4 62   LegendMM LegendMM LegendMM 99.66     LegendNANA
15:00 -8.0 -13.7 64   LegendMM LegendMM LegendMM 99.68     LegendNANA
16:00 -8.6 -15.3 58   LegendMM LegendMM LegendMM 99.77     LegendNANA
17:00 -8.8 -14.5 63   LegendMM LegendMM LegendMM 99.84     LegendNANA
18:00 -9.0 -14.5 64   LegendMM LegendMM LegendMM 99.91     LegendNANA
19:00 -9.4 -14.5 66   LegendMM LegendMM LegendMM 99.99     LegendNANA
20:00 -9.8 -14.0 71   LegendMM LegendMM LegendMM 100.04     LegendNANA
21:00 -9.8 -13.8 73   LegendMM LegendMM LegendMM 100.11     LegendNANA
22:00 -9.9 -13.9 73   LegendMM LegendMM LegendMM 100.15     LegendNANA
23:00 -10.6 -14.1 75   LegendMM LegendMM LegendMM 100.19     LegendNANA

Notes on Data Quality.

Legend

  • E = Estimated
  • M = Missing
  • NA = Not Available*
  • [empty] = Indicates an unobserved value
Date modified: